Torna al catalogo

SL-8 DEB

AttivoLEO
NORAD 1618·DEBRIS·🇷🇺 Russia

Lanciato Sep 18, 1965 da Baikonur Cosmodrome

Loading…

Prossimi Passaggi (prossime 24 ore)

TLE

AggiornatoSource: Space-Track

Epoca: Sep 14, 2026, 11:52 UTC

1 01618U 65073K   26257.49500144  .00000060  00000-0  11691-2 0  9992
2 01618  56.1738 276.8234 0227064  14.2382 133.5430 12.30430487734107

Traccia SL-8 DEB in tempo reale con AllMySat

Download on the App Store